TimeCST,TemperatureF,Dew PointF,Humidity,Sea Level PressureIn,VisibilityMPH,Wind Direction,Wind SpeedMPH,Gust SpeedMPH,PrecipitationIn,Events,Conditions,WindDirDegrees,DateUTC
12:12 AM,-7.6,-11.2,84,30.61,10.0,West,3.5,-,N/A,,Clear,280,2013-12-07 06:12:00
12:33 AM,-7.6,-11.2,84,30.61,10.0,West,3.5,-,N/A,,Clear,280,2013-12-07 06:33:00
12:52 AM,-9.4,-13.0,84,30.61,10.0,West,3.5,-,N/A,,Clear,260,2013-12-07 06:52:00
1:12 AM,-9.4,-13.0,84,30.61,10.0,West,4.6,-,N/A,,Clear,270,2013-12-07 07:12:00
1:33 AM,-9.4,-13.0,84,30.61,10.0,West,4.6,-,N/A,,Clear,280,2013-12-07 07:33:00
1:53 AM,-9.4,-13.0,84,30.61,10.0,West,4.6,-,N/A,,Clear,270,2013-12-07 07:53:00
2:12 AM,-9.4,-13.0,84,30.62,10.0,West,5.8,-,N/A,,Clear,270,2013-12-07 08:12:00
2:33 AM,-9.4,-14.8,77,30.62,10.0,West,4.6,-,N/A,,Clear,270,2013-12-07 08:33:00
2:53 AM,-9.4,-13.0,84,30.62,10.0,West,4.6,-,N/A,,Clear,280,2013-12-07 08:53:00
3:12 AM,-9.4,-14.8,77,30.63,10.0,West,3.5,-,N/A,,Clear,260,2013-12-07 09:12:00
3:33 AM,-11.2,-14.8,84,30.63,10.0,Calm,Calm,-,N/A,,Clear,0,2013-12-07 09:33:00
3:52 AM,-11.2,-14.8,84,30.63,10.0,Calm,Calm,-,N/A,,Clear,0,2013-12-07 09:52:00
4:12 AM,-11.2,-14.8,84,30.63,10.0,Calm,Calm,-,N/A,,Clear,0,2013-12-07 10:12:00
4:33 AM,-11.2,-14.8,84,30.63,10.0,West,4.6,-,N/A,,Clear,270,2013-12-07 10:33:00
4:53 AM,-9.4,-14.8,77,30.63,10.0,West,3.5,-,N/A,,Clear,260,2013-12-07 10:53:00
5:12 AM,-9.4,-14.8,77,30.62,10.0,West,4.6,-,N/A,,Clear,280,2013-12-07 11:12:00
5:33 AM,-11.2,-14.8,84,30.63,10.0,Calm,Calm,-,N/A,,Clear,0,2013-12-07 11:33:00
5:53 AM,-11.2,-16.6,77,30.63,10.0,WSW,3.5,-,N/A,,Clear,240,2013-12-07 11:53:00
6:12 AM,-14.8,-16.6,92,30.64,10.0,Calm,Calm,-,N/A,,Clear,0,2013-12-07 12:12:00
6:33 AM,-14.8,-18.4,84,30.64,10.0,SW,3.5,-,N/A,,Clear,230,2013-12-07 12:33:00
6:53 AM,-14.8,-18.4,84,30.64,10.0,WSW,4.6,-,N/A,,Clear,240,2013-12-07 12:53:00
7:12 AM,-14.8,-18.4,84,30.64,10.0,WSW,4.6,-,N/A,,Clear,250,2013-12-07 13:12:00
7:33 AM,-13.0,-18.4,77,30.65,10.0,SW,3.5,-,N/A,,Clear,230,2013-12-07 13:33:00
7:52 AM,-13.0,-18.4,77,30.65,10.0,Calm,Calm,-,N/A,,Clear,0,2013-12-07 13:52:00
8:13 AM,-13.0,-16.6,84,30.64,10.0,SW,3.5,-,N/A,,Clear,230,2013-12-07 14:13:00
8:32 AM,-11.2,-16.6,77,30.65,10.0,SW,3.5,-,N/A,,Clear,230,2013-12-07 14:32:00
8:53 AM,-11.2,-16.6,77,30.65,10.0,SW,3.5,-,N/A,,Clear,230,2013-12-07 14:53:00
9:12 AM,-9.4,-14.8,77,30.66,10.0,SW,4.6,-,N/A,,Clear,230,2013-12-07 15:12:00
9:33 AM,-9.4,-14.8,77,30.66,10.0,SW,4.6,-,N/A,,Clear,230,2013-12-07 15:33:00
9:53 AM,-9.4,-14.8,77,30.66,10.0,SW,4.6,-,N/A,,Clear,230,2013-12-07 15:53:00
10:12 AM,-7.6,-14.8,71,30.67,10.0,SW,3.5,-,N/A,,Clear,220,2013-12-07 16:12:00
10:33 AM,-7.6,-13.0,77,30.67,10.0,SW,3.5,-,N/A,,Clear,220,2013-12-07 16:33:00
10:52 AM,-5.8,-11.2,77,30.66,10.0,WSW,4.6,-,N/A,,Clear,240,2013-12-07 16:52:00
11:13 AM,-5.8,-11.2,77,30.66,10.0,West,8.1,-,N/A,,Clear,260,2013-12-07 17:13:00
11:33 AM,-4.0,-9.4,78,30.65,10.0,SW,5.8,-,N/A,,Clear,230,2013-12-07 17:33:00
11:52 AM,-2.2,-9.4,71,30.65,10.0,WSW,6.9,-,N/A,,Clear,240,2013-12-07 17:52:00
12:13 PM,-2.2,-11.2,66,30.64,10.0,SW,5.8,-,N/A,,Clear,230,2013-12-07 18:13:00
12:33 PM,-2.2,-9.4,71,30.63,10.0,SW,8.1,-,N/A,,Clear,230,2013-12-07 18:33:00
12:52 PM,-2.2,-9.4,71,30.63,10.0,WSW,5.8,-,N/A,,Clear,240,2013-12-07 18:52:00
1:13 PM,-2.2,-9.4,71,30.62,10.0,WSW,6.9,-,N/A,,Clear,240,2013-12-07 19:13:00
1:33 PM,-0.4,-9.4,66,30.62,10.0,WSW,5.8,-,N/A,,Clear,240,2013-12-07 19:33:00
1:52 PM,-0.4,-9.4,66,30.62,10.0,WSW,8.1,-,N/A,,Clear,240,2013-12-07 19:52:00
2:13 PM,-0.4,-7.6,72,30.61,10.0,WSW,5.8,-,N/A,,Clear,240,2013-12-07 20:13:00
2:33 PM,-0.4,-9.4,66,30.60,10.0,WSW,8.1,-,N/A,,Clear,250,2013-12-07 20:33:00
2:52 PM,-0.4,-9.4,66,30.59,10.0,WSW,3.5,-,N/A,,Clear,240,2013-12-07 20:52:00
3:13 PM,-0.4,-7.6,72,30.59,10.0,Calm,Calm,-,N/A,,Clear,0,2013-12-07 21:13:00
3:33 PM,-0.4,-7.6,72,30.59,10.0,SW,3.5,-,N/A,,Mostly Cloudy,230,2013-12-07 21:33:00
3:52 PM,-0.4,-7.6,72,30.59,10.0,SW,4.6,-,N/A,,Overcast,230,2013-12-07 21:52:00
4:13 PM,-0.4,-7.6,72,30.58,10.0,Calm,Calm,-,N/A,,Overcast,0,2013-12-07 22:13:00
4:33 PM,-0.4,-7.6,72,30.58,10.0,Calm,Calm,-,N/A,,Mostly Cloudy,0,2013-12-07 22:33:00
4:52 PM,-2.2,-7.6,78,30.58,10.0,Calm,Calm,-,N/A,,Scattered Clouds,0,2013-12-07 22:52:00
5:13 PM,-2.2,-9.4,71,30.57,10.0,Calm,Calm,-,N/A,,Clear,0,2013-12-07 23:13:00
5:32 PM,-4.0,-7.6,85,30.57,10.0,Calm,Calm,-,N/A,,Clear,0,2013-12-07 23:32:00
5:53 PM,-4.0,-7.6,85,30.57,10.0,Calm,Calm,-,N/A,,Clear,0,2013-12-07 23:53:00
6:12 PM,-5.8,-9.4,84,30.56,10.0,Calm,Calm,-,N/A,,Clear,0,2013-12-08 00:12:00
6:33 PM,-4.0,-9.4,78,30.56,10.0,Calm,Calm,-,N/A,,Clear,0,2013-12-08 00:33:00
6:53 PM,-7.6,-11.2,84,30.55,10.0,Calm,Calm,-,N/A,,Clear,0,2013-12-08 00:53:00
7:12 PM,-5.8,-9.4,84,30.55,10.0,Calm,Calm,-,N/A,,Clear,0,2013-12-08 01:12:00
7:33 PM,-5.8,-9.4,84,30.55,10.0,Calm,Calm,-,N/A,,Clear,0,2013-12-08 01:33:00
7:53 PM,-5.8,-9.4,84,30.55,10.0,Calm,Calm,-,N/A,,Clear,0,2013-12-08 01:53:00
8:12 PM,-5.8,-9.4,84,30.54,10.0,Calm,Calm,-,N/A,,Clear,0,2013-12-08 02:12:00
8:33 PM,-7.6,-11.2,84,30.53,10.0,Calm,Calm,-,N/A,,Clear,0,2013-12-08 02:33:00
8:53 PM,-7.6,-11.2,84,30.54,10.0,Calm,Calm,-,N/A,,Clear,0,2013-12-08 02:53:00
9:13 PM,-7.6,-11.2,84,30.53,10.0,Calm,Calm,-,N/A,,Clear,0,2013-12-08 03:13:00
9:33 PM,-7.6,-9.4,92,30.52,10.0,Calm,Calm,-,N/A,,Clear,0,2013-12-08 03:33:00
9:53 PM,-7.6,-9.4,92,30.53,10.0,Calm,Calm,-,N/A,,Clear,0,2013-12-08 03:53:00
10:13 PM,-9.4,-14.8,77,30.52,10.0,Calm,Calm,-,N/A,,Clear,0,2013-12-08 04:13:00
10:33 PM,-7.6,-11.2,84,30.52,10.0,Calm,Calm,-,N/A,,Clear,0,2013-12-08 04:33:00
10:53 PM,-7.6,-11.2,84,30.52,10.0,Calm,Calm,-,N/A,,Clear,0,2013-12-08 04:53:00
11:13 PM,-7.6,-11.2,84,30.51,10.0,Calm,Calm,-,N/A,,Clear,0,2013-12-08 05:13:00
11:33 PM,-7.6,-11.2,84,30.51,10.0,Calm,Calm,-,N/A,,Clear,0,2013-12-08 05:33:00
11:53 PM,-7.6,-11.2,84,30.51,10.0,Calm,Calm,-,N/A,,Clear,0,2013-12-08 05:53:00